This demonstration page uses our WeatherBlox Daily Observations layout. Learn more.

Left ArrowRight Arrow

34.74481, -87.66753

Hourly Observations for September 28, 2019

Temp ( °F °C ) Dew Point ( °F °C ) Humidity (%) Winds ( mph kmh ) Pressure ( in mb ) Visibility ( mi km ) Precip ( " mm )
12:53 am 00:53 Clear 75 23.9 67 19.4 76 76 S 3 6 29.93 1013 10 16 0.00 0.00
1:53 am 01:53 Clear 74 23.3 67 19.4 79 79 Calm 29.94 1014 10 16 0.00 0.00
2:53 am 02:53 Clear 71 21.7 67 19.4 87 87 SSE 5 7 29.95 1014 10 16 0.00 0.00
3:53 am 03:53 Clear 71 21.7 66 18.9 84 84 E 3 6 29.97 1015 10 16 0.00 0.00
4:53 am 04:53 Clear 70 21.1 66 18.9 87 87 Calm 29.99 1016 10 16 0.00 0.00
5:53 am 05:53 Clear 68 20 65 18.3 90 90 ESE 3 6 30.01 1016 9 14 0.00 0.00
6:53 am 06:53 Sunny with Mist and Fog 68 20 65 18.3 90 90 Calm 30.04 1017 6 10 0.00 0.00
7:53 am 07:53 Sunny 74 23.3 67 19.4 79 79 Calm 30.07 1018 10 16 0.00 0.00
8:53 am 08:53 Sunny 80 26.7 67 19.4 64 64 W 5 7 30.09 1019 10 16 0.00 0.00
9:53 am 09:53 Mostly Sunny 85 29.4 67 19.4 55 55 W 6 9 30.10 1019 10 16 0.00 0.00
10:53 am 10:53 Mostly Sunny 87 30.6 67 19.4 51 51 VRB 5 7 30.11 1020 10 16 0.00 0.00
11:53 am 11:53 Mostly Sunny 90 32.2 67 19.4 47 47 VRB 3 6 30.10 1019 10 16 0.00 0.00
12:53 pm 12:53 Mostly Sunny 91 32.8 64 17.8 41 41 Calm 30.09 1019 10 16 0.00 0.00
1:53 pm 13:53 Cloudy 91 32.8 64 17.8 41 41 VRB 3 6 30.07 1018 10 16 0.00 0.00
2:53 pm 14:53 Mostly Sunny 93 33.9 64 17.8 38 38 Calm 30.06 1018 10 16 0.00 0.00
3:53 pm 15:53 Mostly Cloudy 92 33.3 64 17.8 40 40 E 5 7 30.05 1018 10 16 0.00 0.00
4:53 pm 16:53 Mostly Cloudy 93 33.9 65 18.3 40 40 NNE 8 13 30.05 1018 10 16 0.00 0.00
5:53 pm 17:53 Cloudy 91 32.8 65 18.3 42 42 ENE 9 15 30.04 1017 10 16 0.00 0.00
6:53 pm 18:53 Mostly Cloudy 86 30 65 18.3 49 49 ESE 5 7 30.04 1017 10 16 0.00 0.00
7:53 pm 19:53 Clear 81 27.2 67 19.4 62 62 Calm 30.05 1018 10 16 0.00 0.00
8:53 pm 20:53 Clear 78 25.6 67 19.4 69 69 Calm 30.06 1018 10 16 0.00 0.00
9:53 pm 21:53 Clear 75 23.9 67 19.4 76 76 Calm 30.08 1019 10 16 0.00 0.00
10:53 pm 22:53 Clear 74 23.3 67 19.4 79 79 Calm 30.09 1019 10 16 0.00 0.00
11:53 pm 23:53 Clear 73 22.8 68 20 84 84 Calm 30.09 1019 10 16 0.00 0.00

Powered by AerisWeather